Погода в Черкутине

Россия / Владимирская область     56°11′19″N   39°45′55″E
темп.,
°C
ветер,
м/с
пор.,
м/с
влажн.,
%
обл.,
%
осадки,
мм/ч
давл.,
гПа
погр.,
м
20 сентября, пн
пн2000:00+5в71355100 0.0 1022692
03:00+5в71462100 0.3 1021704
06:00+4в81780100 1.9 1021684
09:00+3в81887100 4.8 1021709
12:00+4в81787100 1.0 1021745
15:00+5в91685100 1.5 1021899
18:00+5в91690100 2.5 1020998
21:00+5в81593100 4.0 10201001
21 сентября, вт
вт2100:00+6в81490100 0.6 1019993
03:00+5в71393100 1.0 1018948
06:00+4в71395100 2.3 1017858
09:00+5в71395100 2.9 1017741
12:00+5в71395100 1.3 1016637
15:00+5в61295100 1.4 1016574
18:00+5в61295100 0.9 1016572
21:00+5в61196100 4.1 1015562
22 сентября, ср
ср2200:00+5в51196100 2.4 1014582
03:00+5всв61194100 2.9 1013568
06:00+5всв61196100 1.8 1013595
09:00+5всв51096100 3.9 1013583
12:00+5всв4996100 0.8 1013640
15:00+5всв4896100 1.1 1013525
18:00+6всв4898100 0.2 1014467
21:00+6всв3698100 0.2 1014238
23 сентября, чт
чт2300:00+6св3799100 0.2 1014308
03:00+7св3799100 0.3 1014327
06:00+7юв4799100 0.2 1014376
09:00+8ююв51087100 0.3 1016486
12:00+9ююв4880100 0.0 1016595
15:00+11ююв4667100 0.0 10161080
18:00+9юв2278100 0.0 101640
21:00+7ююв2285100 0.0 101634
24 сентября, пт
пт2400:00+6ю2293100 0.0 101530
03:00+5ююв229594 0.0 101525
06:00+6ююв2693100 0.1 1014217
09:00+8ююв4886100 0.1 1013374
12:00+11ююз576095 0.1 10111325
15:00+10ююз3667100 0.1 1010835
18:00+9ю2577100 0.0 1010185
21:00+6ю368969 0.0 1010119